Location: Praha
(50.0830°N, 14.4670°E)
Time: 16:51:03
(UTC+01:00)

ISS - Pass Details

Date: 14 November 2018
Orbit: 401 x 408 km, 51.6° (Epoch: 20 November)

Event Time Altitude Azimuth Distance (km) Brightness Sun altitude
Exits shadow 05:44:58 11° 222° (SW) 1,418 -1.4 -14.1°
Drops below altitude 10° 05:45:37 10° 210° (SSW) 1,457 -1.2 -14.0°
Sets 05:49:07 0° 170° (S) 2,313 0.3 -13.5°
